QPF
0.00 0.00 0.00 0.00 0.00 0.00 0.01 0.03 0.07 0.06 0.01 0.00 0.00 0.00 0.01 0.01 0.01 0.01 0.00 0.00 0.01 0.01 0.01 0.02 0.02 0.01 0.01 0.01 0.01 0.01 0.01 0.02 0.04 0.07 0.15 0.28 0.53 0.65
0.00 0.00 0.00 0.00 0.00 0.00 0.00 0.01 0.03 0.06 0.04 0.00 0.00 0.00 0.00 0.00 0.00 0.00 0.00 0.00 0.00 0.01 0.01 0.01 0.01 0.01 0.01 0.01 0.01 0.00 0.01 0.01 0.02 0.06 0.11 0.19 0.37 0.63
0.00 0.00 0.00 0.00 0.00 0.00 0.00 0.00 0.01 0.02 0.04 0.01 0.00 0.00 0.00 0.00 0.00 0.00 0.00 0.00 0.00 0.00 0.00 0.01 0.01 0.01 0.01 0.01 0.01 0.00 0.00 0.01 0.01 0.04 0.08 0.16 0.28 0.45
0.00 0.01 0.01 0.01 0.01 0.01 0.00 0.01 0.01 0.02 0.03 0.02 0.00 0.00 0.00 0.00 0.00 0.00 0.00 0.00 0.00 0.00 0.00 0.00 0.01 0.01 0.01 0.01 0.01 0.00 0.00 0.00 0.01 0.02 0.05 0.10 0.21 0.36
0.01 0.02 0.02 0.02 0.02 0.01 0.01 0.01 0.01 0.02 0.02 0.02 0.01 0.00 0.00 0.00 0.00 0.00 0.00 0.00 0.00 0.00 0.00 0.00 0.00 0.01 0.01 0.01 0.01 0.00 0.00 0.00 0.00 0.01 0.03 0.08 0.16 0.29
0.03 0.02 0.02 0.02 0.02 0.01 0.01 0.01 0.02 0.02 0.02 0.02 0.01 0.00 0.00 0.00 0.00 0.00 0.00 0.00 0.00 0.00 0.00 0.00 0.00 0.00 0.01 0.01 0.00 0.00 0.00 0.00 0.01 0.01 0.02 0.06 0.13 0.22
0.03 0.02 0.01 0.02 0.02 0.03 0.03 0.03 0.04 0.05 0.03 0.02 0.01 0.01 0.00 0.00 0.00 0.00 0.00 0.00 0.00 0.00 0.00 0.00 0.00 0.00 0.00 0.00 0.00 0.00 0.00 0.01 0.01 0.01 0.01 0.05 0.10 0.18
0.02 0.01 0.01 0.01 0.01 0.02 0.02 0.03 0.04 0.05 0.03 0.02 0.02 0.01 0.00 0.00 0.00 0.00 0.01 0.01 0.00 0.00 0.00 0.00 0.00 0.00 0.00 0.00 0.00 0.00 0.00 0.01 0.01 0.01 0.01 0.03 0.08 0.14
0.01 0.01 0.01 0.01 0.01 0.00 0.02 0.04 0.02 0.01 0.01 0.02 0.02 0.01 0.01 0.00 0.01 0.01 0.01 0.01 0.01 0.00 0.00 0.00 0.00 0.00 0.00 0.00 0.00 0.00 0.00 0.01 0.01 0.01 0.01 0.02 0.06 0.12
0.01 0.01 0.01 0.00 0.00 0.05 0.11 0.05 0.01 0.00 0.00 0.01 0.02 0.02 0.02 0.03 0.04 0.04 0.02 0.01 0.00 0.00 0.01 0.01 0.00 0.00 0.00 0.01 0.01 0.01 0.00 0.01 0.01 0.01 0.02 0.02 0.03 0.08
0.00 0.00 0.00 0.01 0.03 0.09 0.06 0.01 0.00 0.00 0.00 0.01 0.01 0.02 0.02 0.03 0.04 0.05 0.03 0.01 0.01 0.00 0.02 0.03 0.01 0.01 0.01 0.01 0.01 0.01 0.01 0.01 0.02 0.02 0.02 0.03 0.03 0.06
0.00 0.00 0.00 0.02 0.06 0.05 0.02 0.01 0.02 0.03 0.01 0.00 0.00 0.00 0.00 0.00 0.01 0.03 0.03 0.02 0.01 0.01 0.03 0.04 0.02 0.03 0.03 0.02 0.02 0.01 0.01 0.01 0.02 0.03 0.03 0.04 0.05 0.05
0.00 0.00 0.00 0.03 0.04 0.02 0.01 0.02 0.04 0.03 0.01 0.00 0.01 0.00 0.00 0.00 0.01 0.01 0.02 0.03 0.02 0.02 0.03 0.05 0.04 0.05 0.07 0.06 0.05 0.03 0.02 0.02 0.03 0.04 0.05 0.05 0.05 0.04
0.00 0.00 0.01 0.02 0.01 0.01 0.01 0.02 0.02 0.01 0.01 0.01 0.01 0.01 0.01 0.01 0.01 0.01 0.02 0.02 0.02 0.02 0.03 0.06 0.07 0.10 0.13 0.11 0.09 0.06 0.04 0.04 0.04 0.04 0.04 0.06 0.06 0.06
0.01 0.01 0.01 0.01 0.00 0.00 0.01 0.01 0.00 0.00 0.01 0.02 0.02 0.02 0.02 0.02 0.02 0.02 0.02 0.03 0.03 0.03 0.04 0.05 0.07 0.14 0.18 0.16 0.14 0.10 0.08 0.08 0.07 0.06 0.05 0.05 0.05 0.06
0.00 0.00 0.00 0.00 0.00 0.00 0.00 0.00 0.00 0.01 0.02 0.02 0.03 0.03 0.02 0.02 0.02 0.03 0.04 0.04 0.04 0.04 0.05 0.05 0.08 0.16 0.19 0.18 0.17 0.14 0.12 0.13 0.11 0.09 0.07 0.05 0.05 0.04
0.00 0.00 0.00 0.00 0.00 0.00 0.00 0.00 0.00 0.00 0.01 0.02 0.03 0.03 0.02 0.03 0.03 0.03 0.04 0.06 0.06 0.06 0.07 0.08 0.10 0.17 0.22 0.23 0.21 0.17 0.15 0.16 0.15 0.13 0.10 0.09 0.07 0.06
0.00 0.00 0.00 0.00 0.00 0.01 0.01 0.00 0.00 0.00 0.01 0.02 0.02 0.03 0.04 0.04 0.04 0.04 0.04 0.06 0.07 0.08 0.09 0.11 0.15 0.21 0.27 0.27 0.27 0.23 0.19 0.20 0.20 0.18 0.12 0.10 0.11 0.09
0.00 0.00 0.00 0.00 0.01 0.01 0.01 0.01 0.01 0.00 0.01 0.02 0.02 0.03 0.03 0.04 0.05 0.05 0.05 0.05 0.06 0.08 0.10 0.13 0.18 0.25 0.31 0.32 0.30 0.28 0.24 0.24 0.26 0.25 0.18 0.11 0.09 0.09
0.00 0.00 0.00 0.01 0.01 0.01 0.01 0.01 0.01 0.00 0.01 0.01 0.02 0.02 0.03 0.04 0.04 0.05 0.05 0.06 0.06 0.07 0.09 0.13 0.18 0.25 0.32 0.35 0.35 0.32 0.33 0.31 0.29 0.28 0.23 0.17 0.14 0.16
0.00 0.00 0.00 0.01 0.01 0.01 0.01 0.01 0.01 0.01 0.01 0.01 0.01 0.02 0.02 0.03 0.04 0.05 0.05 0.05 0.05 0.06 0.08 0.11 0.16 0.23 0.30 0.34 0.36 0.36 0.38 0.43 0.38 0.29 0.22 0.19 0.20 0.23
0.00 0.00 0.00 0.01 0.01 0.01 0.01 0.01 0.01 0.01 0.01 0.01 0.01 0.01 0.01 0.02 0.03 0.04 0.04 0.04 0.05 0.06 0.08 0.10 0.13 0.21 0.28 0.34 0.38 0.39 0.42 0.48 0.51 0.44 0.31 0.21 0.14 0.14
0.00 0.00 0.00 0.01 0.01 0.01 0.01 0.01 0.01 0.01 0.01 0.01 0.01 0.01 0.01 0.01 0.02 0.03 0.03 0.04 0.04 0.05 0.06 0.09 0.12 0.20 0.29 0.36 0.40 0.41 0.44 0.49 0.53 0.50 0.44 0.33 0.18 0.09
MSLP
1023.33 1023.06 1022.78 1022.46 1022.05 1021.50 1020.81 1019.97 1019.01 1017.97 1016.91 1015.86 1014.87 1013.94 1013.07 1012.26 1011.48 1010.72 1009.95 1009.20 1008.48 1007.81 1007.22 1006.73 1006.34 1006.04 1005.81 1005.61 1005.39 1005.14 1004.83 1004.48 1004.12 1003.80 1003.56 1003.48 1003.59 1003.93
1022.21 1021.91 1021.62 1021.30 1020.92 1020.42 1019.80 1019.05 1018.18 1017.25 1016.28 1015.32 1014.41 1013.55 1012.74 1011.98 1011.24 1010.51 1009.78 1009.05 1008.34 1007.67 1007.07 1006.56 1006.14 1005.82 1005.56 1005.34 1005.12 1004.87 1004.57 1004.24 1003.88 1003.55 1003.29 1003.16 1003.21 1003.46
1021.02 1020.66 1020.33 1020.00 1019.62 1019.16 1018.60 1017.94 1017.18 1016.36 1015.51 1014.67 1013.85 1013.08 1012.34 1011.63 1010.93 1010.22 1009.50 1008.77 1008.04 1007.35 1006.71 1006.16 1005.71 1005.35 1005.06 1004.83 1004.62 1004.39 1004.13 1003.84 1003.53 1003.23 1002.98 1002.84 1002.85 1003.03
1019.81 1019.39 1019.01 1018.65 1018.26 1017.82 1017.32 1016.73 1016.08 1015.38 1014.65 1013.93 1013.22 1012.55 1011.89 1011.23 1010.56 1009.86 1009.13 1008.37 1007.61 1006.87 1006.18 1005.57 1005.05 1004.64 1004.32 1004.07 1003.86 1003.66 1003.46 1003.23 1002.99 1002.76 1002.56 1002.45 1002.45 1002.60
1018.63 1018.15 1017.73 1017.33 1016.92 1016.50 1016.03 1015.52 1014.95 1014.36 1013.75 1013.15 1012.55 1011.97 1011.38 1010.78 1010.13 1009.45 1008.70 1007.91 1007.10 1006.29 1005.53 1004.84 1004.24 1003.76 1003.38 1003.09 1002.88 1002.70 1002.54 1002.39 1002.24 1002.10 1001.98 1001.93 1001.97 1002.13
1017.52 1017.00 1016.54 1016.10 1015.69 1015.27 1014.83 1014.36 1013.87 1013.37 1012.86 1012.36 1011.87 1011.37 1010.85 1010.30 1009.69 1009.01 1008.25 1007.43 1006.57 1005.70 1004.85 1004.06 1003.37 1002.79 1002.33 1001.98 1001.74 1001.56 1001.44 1001.35 1001.28 1001.24 1001.23 1001.28 1001.39 1001.61
1016.51 1015.97 1015.48 1015.02 1014.59 1014.17 1013.74 1013.31 1012.88 1012.44 1012.01 1011.59 1011.17 1010.75 1010.30 1009.80 1009.23 1008.57 1007.82 1006.98 1006.08 1005.15 1004.23 1003.35 1002.56 1001.87 1001.31 1000.87 1000.56 1000.35 1000.23 1000.17 1000.17 1000.23 1000.33 1000.48 1000.70 1001.00
1015.61 1015.06 1014.56 1014.09 1013.65 1013.22 1012.80 1012.38 1011.98 1011.59 1011.21 1010.85 1010.49 1010.13 1009.73 1009.28 1008.75 1008.13 1007.41 1006.58 1005.68 1004.72 1003.74 1002.79 1001.90 1001.11 1000.43 999.89 999.48 999.20 999.04 998.99 999.02 999.14 999.33 999.59 999.92 1000.33
1014.83 1014.29 1013.78 1013.30 1012.85 1012.42 1012.00 1011.58 1011.19 1010.81 1010.46 1010.13 1009.81 1009.48 1009.13 1008.73 1008.26 1007.69 1007.01 1006.23 1005.35 1004.40 1003.41 1002.42 1001.46 1000.58 999.79 999.14 998.62 998.24 998.01 997.91 997.94 998.09 998.34 998.68 999.11 999.61
1014.17 1013.64 1013.13 1012.65 1012.20 1011.75 1011.32 1010.90 1010.50 1010.12 1009.77 1009.44 1009.13 1008.82 1008.50 1008.13 1007.71 1007.20 1006.59 1005.88 1005.06 1004.16 1003.21 1002.22 1001.24 1000.31 999.44 998.68 998.05 997.57 997.24 997.06 997.04 997.17 997.43 997.82 998.30 998.88
1013.62 1013.10 1012.60 1012.13 1011.67 1011.22 1010.77 1010.33 1009.91 1009.51 1009.13 1008.78 1008.45 1008.13 1007.81 1007.47 1007.08 1006.63 1006.10 1005.48 1004.76 1003.95 1003.07 1002.14 1001.19 1000.24 999.34 998.51 997.79 997.20 996.76 996.48 996.38 996.45 996.68 997.06 997.56 998.17
1013.16 1012.66 1012.18 1011.72 1011.26 1010.80 1010.34 1009.88 1009.43 1008.99 1008.57 1008.17 1007.80 1007.44 1007.10 1006.75 1006.38 1005.97 1005.50 1004.97 1004.36 1003.66 1002.89 1002.06 1001.18 1000.28 999.38 998.53 997.75 997.07 996.53 996.15 995.95 995.93 996.09 996.42 996.90 997.50
1012.80 1012.33 1011.87 1011.42 1010.96 1010.50 1010.03 1009.55 1009.06 1008.58 1008.10 1007.64 1007.20 1006.78 1006.38 1005.99 1005.60 1005.21 1004.79 1004.33 1003.81 1003.24 1002.59 1001.88 1001.11 1000.29 999.44 998.60 997.79 997.06 996.45 995.98 995.67 995.56 995.63 995.89 996.32 996.88
1012.53 1012.09 1011.66 1011.22 1010.78 1010.32 1009.84 1009.34 1008.82 1008.29 1007.75 1007.22 1006.70 1006.19 1005.71 1005.25 1004.81 1004.39 1003.97 1003.55 1003.11 1002.63 1002.09 1001.50 1000.85 1000.13 999.36 998.57 997.78 997.03 996.37 995.83 995.44 995.24 995.22 995.41 995.77 996.28
1012.33 1011.94 1011.54 1011.12 1010.70 1010.24 1009.76 1009.25 1008.71 1008.14 1007.54 1006.94 1006.33 1005.72 1005.14 1004.58 1004.06 1003.57 1003.12 1002.69 1002.27 1001.84 1001.39 1000.90 1000.34 999.72 999.04 998.30 997.55 996.81 996.14 995.56 995.12 994.85 994.77 994.90 995.21 995.69
1012.21 1011.85 1011.49 1011.10 1010.69 1010.25 1009.77 1009.26 1008.70 1008.11 1007.47 1006.80 1006.12 1005.42 1004.73 1004.06 1003.43 1002.84 1002.31 1001.82 1001.38 1000.95 1000.53 1000.08 999.58 999.03 998.41 997.74 997.03 996.31 995.64 995.05 994.60 994.30 994.20 994.30 994.60 995.08
1012.13 1011.82 1011.48 1011.12 1010.73 1010.30 1009.83 1009.33 1008.77 1008.17 1007.52 1006.81 1006.07 1005.30 1004.51 1003.74 1002.99 1002.29 1001.64 1001.06 1000.53 1000.05 999.59 999.13 998.64 998.10 997.51 996.87 996.19 995.50 994.85 994.27 993.83 993.55 993.46 993.59 993.93 994.46
1012.09 1011.81 1011.49 1011.14 1010.76 1010.34 1009.89 1009.41 1008.87 1008.28 1007.64 1006.93 1006.16 1005.35 1004.50 1003.64 1002.79 1001.97 1001.20 1000.49 999.84 999.25 998.70 998.16 997.62 997.05 996.44 995.78 995.11 994.43 993.80 993.26 992.85 992.62 992.59 992.80 993.22 993.85
1012.05 1011.79 1011.48 1011.13 1010.75 1010.34 1009.91 1009.44 1008.94 1008.39 1007.78 1007.11 1006.35 1005.53 1004.66 1003.75 1002.82 1001.90 1001.01 1000.17 999.39 998.66 997.98 997.33 996.68 996.02 995.34 994.64 993.94 993.26 992.64 992.13 991.77 991.61 991.68 991.99 992.54 993.32
1011.98 1011.73 1011.42 1011.06 1010.67 1010.27 1009.84 1009.41 1008.95 1008.45 1007.90 1007.28 1006.58 1005.80 1004.94 1004.01 1003.04 1002.06 1001.08 1000.12 999.21 998.35 997.52 996.72 995.95 995.17 994.40 993.63 992.88 992.17 991.56 991.07 990.77 990.68 990.85 991.29 991.98 992.92
1011.88 1011.62 1011.29 1010.92 1010.52 1010.11 1009.70 1009.29 1008.88 1008.44 1007.97 1007.42 1006.80 1006.08 1005.27 1004.37 1003.41 1002.39 1001.36 1000.33 999.31 998.32 997.37 996.44 995.53 994.64 993.77 992.91 992.10 991.36 990.73 990.27 990.01 989.99 990.25 990.80 991.63 992.72
1011.71 1011.45 1011.10 1010.71 1010.30 1009.88 1009.48 1009.10 1008.73 1008.35 1007.95 1007.49 1006.95 1006.32 1005.58 1004.75 1003.82 1002.83 1001.78 1000.71 999.64 998.57 997.52 996.50 995.49 994.50 993.54 992.61 991.74 990.97 990.33 989.87 989.63 989.66 989.99 990.63 991.56 992.76
1011.47 1011.21 1010.86 1010.46 1010.04 1009.61 1009.22 1008.86 1008.52 1008.20 1007.86 1007.48 1007.03 1006.48 1005.84 1005.08 1004.22 1003.28 1002.26 1001.20 1000.12 999.03 997.95 996.87 995.81 994.77 993.76 992.78 991.88 991.09 990.43 989.97 989.74 989.78 990.13 990.81 991.79 993.05
Thickness
5193 5180 5168 5158 5149 5140 5133 5127 5125 5133 5144 5147 5149 5154 5158 5167 5179 5193 5212 5233 5258 5284 5310 5339 5370 5401 5432 5462 5490 5517 5542 5565 5588 5608 5628 5646 5662 5674
5195 5183 5172 5163 5154 5146 5139 5134 5130 5130 5139 5146 5149 5153 5159 5166 5178 5191 5207 5228 5251 5274 5300 5327 5356 5385 5416 5447 5476 5503 5529 5554 5577 5599 5619 5638 5654 5667
5199 5188 5179 5169 5160 5152 5145 5140 5136 5134 5139 5148 5150 5155 5160 5167 5177 5189 5205 5224 5244 5267 5291 5316 5343 5372 5403 5433 5462 5490 5516 5542 5566 5589 5610 5630 5647 5662
5205 5194 5185 5176 5168 5159 5152 5146 5143 5141 5142 5148 5153 5156 5161 5168 5178 5190 5205 5223 5241 5262 5285 5309 5334 5362 5391 5421 5450 5479 5506 5531 5555 5579 5602 5623 5640 5653
5210 5200 5192 5183 5175 5167 5159 5153 5150 5149 5148 5150 5156 5160 5164 5170 5179 5191 5205 5221 5239 5260 5281 5304 5329 5355 5383 5412 5441 5469 5497 5526 5550 5572 5590 5610 5629 5645
5216 5207 5197 5188 5181 5174 5167 5161 5158 5156 5155 5155 5159 5164 5168 5174 5180 5191 5207 5222 5240 5259 5279 5301 5324 5348 5376 5405 5438 5467 5492 5514 5537 5560 5582 5602 5620 5637
5221 5211 5202 5195 5190 5184 5179 5173 5168 5164 5162 5162 5164 5167 5172 5175 5181 5191 5206 5222 5241 5259 5277 5297 5318 5343 5370 5399 5427 5456 5482 5507 5531 5553 5574 5594 5613 5629
5223 5214 5206 5200 5194 5191 5187 5182 5178 5172 5168 5167 5168 5169 5173 5177 5184 5194 5207 5221 5240 5258 5273 5294 5315 5339 5365 5392 5421 5449 5476 5501 5524 5547 5567 5587 5606 5623
5225 5216 5209 5203 5199 5192 5189 5187 5181 5177 5176 5173 5172 5173 5177 5181 5187 5198 5209 5222 5238 5254 5268 5293 5315 5337 5362 5389 5416 5443 5469 5495 5518 5540 5561 5581 5599 5616
5227 5218 5211 5205 5201 5200 5197 5191 5184 5180 5178 5177 5177 5179 5183 5188 5193 5203 5213 5226 5241 5256 5268 5288 5313 5337 5362 5387 5413 5440 5465 5490 5513 5535 5556 5575 5593 5609
5230 5222 5215 5209 5208 5207 5200 5194 5189 5186 5185 5185 5185 5187 5191 5195 5201 5208 5217 5228 5243 5259 5272 5289 5314 5336 5360 5387 5413 5438 5462 5486 5508 5530 5550 5569 5586 5601
5234 5225 5218 5215 5213 5210 5203 5197 5194 5193 5190 5187 5187 5189 5191 5195 5202 5208 5215 5226 5239 5255 5272 5288 5307 5326 5354 5384 5409 5434 5458 5482 5503 5524 5544 5562 5578 5592
5237 5228 5221 5219 5216 5211 5207 5200 5199 5199 5193 5191 5191 5192 5194 5198 5203 5210 5218 5227 5239 5253 5268 5280 5297 5315 5338 5369 5399 5429 5454 5478 5498 5518 5537 5555 5571 5588
5239 5231 5224 5222 5217 5211 5206 5205 5204 5200 5195 5195 5195 5196 5198 5202 5208 5215 5224 5233 5243 5256 5268 5278 5290 5306 5326 5351 5386 5420 5449 5473 5494 5514 5534 5550 5566 5583
5241 5234 5228 5221 5215 5209 5207 5206 5203 5198 5198 5197 5197 5199 5202 5206 5212 5220 5229 5239 5250 5262 5273 5282 5291 5304 5319 5341 5371 5403 5435 5466 5489 5510 5528 5546 5564 5579
5241 5233 5227 5220 5214 5210 5207 5204 5201 5200 5201 5199 5200 5202 5206 5210 5216 5223 5232 5243 5255 5269 5281 5289 5297 5307 5323 5341 5362 5391 5421 5453 5484 5506 5526 5545 5561 5577
5243 5233 5225 5219 5214 5210 5207 5205 5203 5203 5202 5202 5203 5206 5209 5214 5219 5226 5234 5244 5256 5270 5283 5295 5304 5314 5327 5343 5365 5391 5418 5448 5478 5503 5522 5540 5557 5574
5242 5232 5224 5218 5214 5210 5207 5206 5204 5203 5203 5204 5206 5207 5211 5216 5222 5229 5237 5246 5257 5270 5284 5297 5310 5321 5335 5351 5370 5393 5420 5449 5477 5501 5522 5540 5555 5569
5239 5231 5223 5218 5214 5210 5207 5205 5204 5204 5204 5206 5207 5210 5213 5218 5224 5232 5240 5249 5261 5274 5287 5300 5314 5329 5349 5367 5385 5399 5423 5449 5476 5499 5520 5539 5556 5570
5240 5231 5225 5220 5215 5212 5209 5207 5206 5206 5206 5208 5210 5212 5216 5221 5227 5235 5243 5252 5265 5278 5291 5306 5319 5333 5350 5369 5385 5404 5424 5448 5475 5499 5518 5534 5549 5563
5241 5234 5227 5222 5217 5213 5210 5208 5207 5207 5207 5209 5212 5215 5219 5225 5231 5238 5247 5258 5269 5280 5294 5310 5325 5339 5352 5367 5386 5408 5429 5451 5477 5500 5518 5532 5543 5552
5243 5236 5230 5224 5219 5215 5212 5210 5209 5209 5209 5211 5214 5218 5222 5228 5235 5242 5251 5261 5272 5284 5299 5315 5332 5348 5363 5380 5397 5414 5434 5455 5476 5497 5517 5537 5550 5558
5244 5238 5232 5226 5221 5217 5214 5212 5210 5211 5211 5212 5215 5220 5225 5231 5237 5245 5254 5264 5276 5290 5306 5321 5337 5353 5369 5384 5400 5417 5437 5457 5475 5492 5506 5526 5547 5564